User: anonymous   Login
Location: Unspecified
(0.0000°N, 0.0000°E)
Time: 00:04:14
(UTC+00:00)
Language:

LES 1 - Orbit

View from above orbital plane
View from above orbital plane
View from above satellite
View from above satellite

Ground track
Ground track

The orbit data is extracted from the following two-line orbital elements,

1  1002U 65008C   17172.60178694 +.00000016 +00000-0 +10000-2 0  9991
2  1002 032.1429 261.0574 0015147 290.4488 069.4383 09.88352413891413
Epoch (UTC): 21 June 2017 14:26:34
Eccentricity: 0.0015147
inclination: 32.1429°
perigee height: 2780 km
apogee height: 2807 km
right ascension of ascending node: 261.0574°
argument of perigee: 290.4488°
revolutions per day: 9.88352413
mean anomaly at epoch: 69.4383°
orbit number at epoch: 89141

The dashed part of the orbit path shows where the satellite is in the earth's shadow,  

DLR